Dewpoint
58 58 59 59 59 59 58 58 57 56 56 56 56 58 58 59 58 51 36 42 44 57 51 31 31 30 29 30 30 26 20 17 16 16 19 21 21 22 25 27 34 34 46 47 58
58 59 58 59 59 59 58 57 57 56 56 56 56 57 58 58 47 43 50 59 58 56 30 28 26 27 23 26 26 21 20 17 14 15 21 22 21 21 23 25 37 42 48 53 59
58 58 59 59 59 58 58 57 57 57 56 56 57 58 58 55 41 32 56 58 57 50 32 27 28 25 24 23 21 24 15 17 17 20 21 21 21 21 22 23 25 30 45 55 57
57 57 58 59 59 58 57 57 56 56 56 57 57 58 57 50 11 41 56 57 56 37 33 26 24 22 22 18 21 14 18 15 22 23 21 20 22 20 20 20 23 28 50 56 57
57 57 57 58 59 58 57 57 56 56 56 57 58 58 50 36 31 42 54 52 37 34 28 24 22 21 19 18 18 13 15 19 23 22 20 22 21 20 20 22 26 35 54 56 58
56 56 57 58 58 58 57 56 56 57 57 56 58 57 40 22 38 41 41 39 35 32 29 24 22 22 19 19 17 17 19 19 23 21 22 18 18 22 14 19 22 42 51 54 56
56 56 57 58 58 58 58 57 57 57 57 56 57 52 40 25 40 41 38 36 36 33 29 29 25 23 22 21 24 20 16 18 20 22 21 23 11 18 17 20 19 29 43 50 53
57 57 57 57 57 57 57 57 57 57 57 57 58 47 28 40 40 36 36 34 34 33 33 30 30 30 23 24 22 18 14 7 12 23 24 14 3 8 22 18 18 19 24 33 44
57 57 57 57 57 57 57 57 57 57 57 58 47 35 19 46 38 38 34 31 33 31 32 31 30 28 24 19 18 19 5 12 11 22 24 17 10 13 23 20 29 19 19 20 25
57 57 56 56 56 56 57 57 57 56 55 53 46 37 31 33 38 36 34 33 31 30 29 28 26 23 20 14 8 15 11 13 10 20 22 21 20 20 20 21 20 20 21 21 21
57 57 56 56 56 57 57 53 45 44 46 34 36 29 30 40 38 35 34 32 30 23 22 26 22 19 20 15 9 15 14 11 12 21 21 21 20 20 21 21 20 19 19 19 21
57 57 56 56 56 57 54 46 41 37 35 43 44 38 40 39 34 35 33 28 25 21 25 23 20 20 20 18 14 14 12 12 15 23 21 18 17 18 19 19 18 17 17 18 18
56 56 56 56 56 55 51 51 50 49 30 32 42 37 37 38 31 33 31 30 24 23 23 20 17 21 19 18 15 15 12 12 12 18 16 16 11 11 14 20 21 20 21 21 21
57 56 56 56 52 51 49 51 54 45 24 30 37 37 38 37 31 36 33 29 26 20 23 19 21 20 21 18 16 14 17 16 16 13 10 17 2 14 13 14 14 18 23 25 29
57 56 56 55 50 49 48 53 55 41 17 27 38 39 38 30 32 35 35 30 25 23 23 18 22 21 20 20 18 16 20 17 17 16 20 18 10 10 14 12 12 24 29 30 30
57 56 56 54 53 50 53 55 48 31 16 33 41 36 33 34 35 34 32 32 28 26 25 20 28 21 20 26 20 27 22 22 24 16 11 14 6 6 8 12 28 30 30 31 31
52 56 54 52 49 54 55 48 33 26 30 36 37 35 31 33 33 31 30 29 25 23 23 28 26 31 27 24 26 19 14 13 11 13 10 18 12 9 15 21 28 30 32 33 33
51 52 52 52 52 55 50 40 28 29 28 39 38 33 29 31 32 31 28 26 29 21 24 21 20 27 27 22 23 17 14 15 7 13 10 22 16 16 28 31 31 32 32 33 33
49 48 48 50 53 53 44 33 30 30 31 37 36 31 31 32 32 30 28 24 24 26 18 21 17 29 27 26 23 20 15 18 19 15 18 20 21 26 30 30 31 31 32 32 33
44 46 46 50 53 50 40 34 33 38 40 38 33 34 30 33 31 29 29 28 26 28 24 24 19 29 29 27 28 23 25 21 22 12 12 13 17 19 29 30 30 30 31 32 32
41 40 46 51 50 44 34 35 36 39 40 38 35 35 33 33 30 29 28 27 27 29 27 26 24 28 29 26 25 25 23 23 22 21 14 13 15 21 29 31 30 31 31 32 32
37 35 44 51 35 33 32 36 39 40 41 38 37 37 35 34 32 30 28 27 30 30 26 31 27 25 26 31 35 31 23 24 17 18 22 19 15 31 31 31 32 32 32 33 33
34 37 45 47 33 32 33 36 39 39 39 38 37 38 37 36 33 33 32 37 36 30 27 33 28 21 24 29 32 31 30 28 28 25 21 17 19 32 33 34 35 35 33 32 32
31 31 36 41 41 35 33 34 35 40 39 39 38 39 37 36 37 36 37 39 40 40 41 35 31 23 17 19 31 31 31 29 24 23 20 21 27 31 32 34 35 34 33 32 33
32 27 32 32 35 36 37 35 34 34 39 38 37 37 36 34 35 36 37 40 40 41 40 35 28 31 31 32 30 29 30 30 28 23 21 21 26 31 33 34 35 33 30 30 31
29 27 31 30 37 35 36 34 34 35 36 36 35 36 37 35 35 35 36 37 38 39 38 37 32 34 32 35 34 31 31 30 27 26 31 31 31 33 35 34 32 29 28 29 30
37 34 30 29 33 34 34 34 34 34 34 36 36 37 37 37 39 39 40 40 40 38 36 35 33 33 28 33 33 30 31 32 31 34 28 30 34 33 32 31 28 28 28 30 31
Lifted_Index
4 4 5 5 6 6 6 7 7 7 7 7 7 6 6 6 7 8 9 9 9 9 9 10 10 9 9 8 8 8 6 5 5 6 7 7 7 7 7 7 7 7 5 3 0
4 4 4 5 5 6 6 6 7 7 7 7 7 6 6 6 7 8 9 8 9 9 9 9 10 9 9 8 8 7 6 6 6 6 7 7 7 7 7 7 7 7 5 2 -0
4 4 4 4 5 5 6 6 7 7 7 7 7 6 6 6 7 8 8 8 9 9 9 9 9 9 8 8 8 7 7 7 7 7 7 7 7 7 7 6 7 7 4 1 -1
4 4 4 4 4 5 5 6 6 7 7 7 6 6 7 7 7 8 8 9 9 10 9 9 9 8 8 7 7 7 7 7 7 8 8 7 7 7 7 7 7 7 4 1 -1
4 4 4 3 4 4 5 5 6 6 7 6 6 6 7 8 7 8 8 9 10 10 9 9 9 8 8 7 7 7 7 7 8 8 8 7 7 7 7 7 8 6 4 1 -0
4 4 4 3 3 4 4 5 5 6 6 6 6 6 7 8 8 8 8 9 10 10 9 9 9 8 8 7 7 7 7 7 8 8 7 7 6 6 7 7 7 6 4 2 1
4 4 4 3 3 4 4 4 5 5 5 5 5 6 8 8 8 8 9 9 9 9 9 9 9 9 8 8 7 7 7 6 7 7 7 7 6 6 7 7 7 6 6 4 3
3 3 3 3 4 4 4 4 4 5 5 5 5 7 8 8 8 8 9 9 9 9 9 9 9 9 8 8 7 7 6 5 6 7 7 6 5 5 6 7 7 7 7 6 5
2 2 3 3 4 4 4 4 4 4 4 5 6 7 8 8 8 8 9 9 8 8 8 8 8 8 8 7 6 5 5 4 5 6 6 6 5 6 7 7 7 7 7 7 6
2 2 3 3 4 4 3 3 4 4 4 5 7 8 8 8 8 8 8 8 8 8 8 8 7 7 7 6 5 4 4 4 5 6 6 5 5 6 7 7 7 7 7 7 6
2 2 3 3 3 3 3 4 4 5 5 6 7 8 8 8 7 8 8 8 8 8 7 7 6 5 6 6 5 5 5 5 6 6 6 5 5 6 7 7 7 7 6 6 6
1 2 3 3 3 3 3 4 4 5 6 6 7 7 7 7 7 7 8 8 7 7 7 6 6 6 6 6 6 6 5 5 6 7 6 6 5 5 6 7 6 6 6 6 6
1 2 2 3 3 3 3 3 3 3 4 6 6 6 6 6 7 7 7 7 7 6 6 6 6 6 6 6 6 6 5 5 6 6 6 5 4 5 6 6 6 6 6 6 6
1 1 2 3 4 4 4 3 2 2 3 5 5 6 6 6 7 7 7 7 7 6 6 6 6 6 6 6 6 5 6 6 6 5 5 5 3 4 5 5 5 6 6 6 6
0 1 2 3 4 4 3 2 1 1 3 4 5 6 6 7 7 7 7 7 7 6 6 6 6 6 6 6 6 6 6 6 6 5 4 4 3 3 4 5 5 6 6 6 6
1 1 2 3 3 3 3 2 2 2 3 4 5 5 6 7 7 7 7 7 6 6 6 6 7 7 7 7 7 7 6 6 5 4 3 4 4 4 5 5 6 6 6 6 6
1 1 2 3 3 3 3 3 2 3 4 4 4 5 6 6 6 6 6 6 6 5 5 5 6 7 7 7 7 7 6 4 3 2 2 3 4 4 5 6 7 7 7 6 6
3 2 2 3 3 3 3 3 3 4 4 4 4 4 5 5 6 6 6 6 6 5 4 4 5 6 7 7 6 6 5 3 2 1 2 4 4 5 6 7 7 7 7 7 7
4 3 3 3 3 3 3 3 3 4 4 3 3 3 4 4 5 5 5 5 6 6 5 4 4 6 6 6 6 6 5 4 3 2 2 3 5 6 7 7 7 7 7 7 7
5 5 5 5 4 4 3 3 4 4 3 2 2 3 3 3 4 4 4 5 5 5 5 5 4 5 6 6 5 5 5 5 4 3 2 2 4 6 7 7 6 6 6 6 6
5 5 5 6 5 3 3 3 4 3 2 2 2 2 2 3 3 3 3 4 5 4 4 4 4 4 5 5 5 5 5 5 4 3 2 2 3 5 6 6 6 6 5 5 6
5 5 6 6 4 3 3 3 3 3 2 2 1 1 2 2 2 2 2 3 3 3 3 3 3 3 4 4 5 5 5 5 4 3 3 2 3 5 6 5 5 5 5 5 5
5 5 5 5 4 3 3 3 3 3 2 2 1 1 1 1 2 2 2 2 3 3 3 3 3 3 3 4 5 5 5 5 4 3 3 3 3 4 5 5 4 4 4 4 4
6 6 5 5 4 4 3 3 3 3 2 2 2 1 1 1 1 2 2 2 2 2 2 2 2 2 3 3 4 4 4 4 4 3 3 3 3 4 4 3 3 3 3 3 3
7 7 6 5 5 4 4 4 3 3 3 2 2 2 2 1 1 1 1 2 2 2 2 2 2 2 3 3 4 4 4 3 3 3 3 3 3 3 3 3 2 3 3 3 3
8 8 7 6 5 5 4 4 4 3 3 3 3 3 2 2 2 2 2 2 2 2 2 2 2 2 2 3 3 3 3 3 3 3 3 3 3 3 2 2 2 3 3 3 3
8 8 8 7 6 5 4 4 4 4 4 4 3 3 3 3 3 3 2 2 2 2 2 2 2 2 2 2 3 3 3 3 3 3 3 3 3 3 2 2 2 3 3 3 3